Zurück zum Katalog

COSMOS 970 DEB

AktivLEO
NORAD 64994·DEBRIS·🇷🇺 Russia

Gestartet Dec 21, 1977 von Baikonur Cosmodrome

Loading…

Nächste Überflüge (nächste 24 Stunden)

TLE

AlterndSource: Space-Track

Epoche: Sep 9, 2026, 10:48 UTC

1 64994U 77121DF  26252.45035737  .00000094  00000-0  17685-3 0  9994
2 64994  66.1435 321.0274 0140042 122.8133 238.6508 13.71733915640315

Verfolge COSMOS 970 DEB in Echtzeit mit AllMySat

Download on the App Store